Regional Weather Roundup
Issued by NWS

Home | Current Version | Previous Version | Text Only | Print | Product List | Glossary Off
Versions: 1 2 3 4 5 6 7 8 9 10 11 12 13 14 15 16 17 18 19 20 21 22 23 24 25 26 27 28

000
ASUS45 KBOU 251407
RWRCO

WEATHER ROUNDUP FOR COLORADO
NATIONAL WEATHER SERVICE DENVER/BOULDER CO
800 AM MDT TUE APR 25 2017

NOTE: "FAIR" INDICATES FEW OR NO CLOUDS BELOW 12000 FEET WITH NO
SIGNIFICANT WEATHER AND/OR OBSTRUCTIONS TO VISIBILITY.

COZ001>005-013-030-031-251500-
...NORTHWEST COLORADO...

CITY           SKY/WX    TMP DP  RH WIND       PRES   REMARKS
CRAIG          CLOUDY    32  31  96 S3        29.71S FOG
HAYDEN         FAIR      34  28  80 E7        29.71R WCI  28
MEEKER         CLOUDY    35  33  92 CALM      29.70S
MOUNT WERNER   NOT AVBL
STEAMBOAT SPGS CLOUDY    32  31  97 CALM      29.71R
WALDEN           N/A     28  23  80 S3        29.69R
$$

COZ006>008-011-251500-
...WEST CENTRAL VALLEYS...

CITY           SKY/WX    TMP DP  RH WIND       PRES   REMARKS
GRAND JUNCTION PTSUNNY   45  39  79 SW3       29.68R
MONTROSE       FAIR      42  34  73 SE14      29.70S
EAGLE          MOSUNNY   36  32  87 SW5       29.72R
RIFLE          FAIR      39  38  96 CALM      29.70S
DELTA          CLOUDY    48  34  57 E3        29.69R
NUCLA          CLOUDY    45  32  61 CALM      29.73R
$$

COZ017>023-064>068-251500-
...SOUTHWEST COLORADO...

CITY           SKY/WX    TMP DP  RH WIND       PRES   REMARKS
DURANGO        CLOUDY    44  30  57 W13       29.69R
CORTEZ         LGT RAIN  42  35  76 N9        29.73R
PAGOSA SPRINGS DRIZZLE   40  36  84 SW6       29.71S
TELLURIDE      CLOUDY    31  31  99 W3        29.76S
WOLF CREEK PAS HVY SNOW  23  23 100 S18G26    29.79S VSB<1/4 WCI   9
$$

COZ009-010-012-014-032>034-037-058>063-251500-
...CENTRAL COLORADO...

CITY           SKY/WX    TMP DP  RH WIND       PRES   REMARKS
ASPEN          FAIR      30  29  96 CALM      29.69R
BUENA VISTA    FAIR      37  20  49 CALM      29.66R
COPPER MTN     PTSUNNY   23  18  80 MISG      29.70F
BERTHOUD PASS  CLOUDY    12   1  62 NW25G36   29.67R WCI  -8
COTTONWOOD PAS FAIR      32  21  64 W8        29.68R WCI  25
GUNNISON       FAIR      34  30  85 CALM      29.72S
KREMMLING      CLOUDY    37  32  81 CALM      29.71S
LEADVILLE      FAIR      27  18  69 N9        29.68F WCI  18
MONARCH PASS   CLOUDY    19  18  93 W24G30    29.82S WCI   2
SALIDA         FAIR      37  32  82 SE5       29.73S
SUNLIGHT       LGT SNOW  23  21  93 MISG      29.77S VSB 3/4
WILKERSON PASS FAIR      21  16  79 SW12G23   29.71R WCI   9
$$

COZ069>075-251500-
...SAN LUIS VALLEY/SANGRE DE CRISTO MOUNTAINS...

CITY           SKY/WX    TMP DP  RH WIND       PRES   REMARKS
ALAMOSA        FAIR      43  27  53 NE13      29.66S
LA VETA PASS   CLOUDY    34  23  64 S14G28    29.80F WCI  24
SAGUACHE       PTSUNNY   39  27  60 NW15      29.69R
$$

COZ035-036-038>040-251500-
...NORTHERN COLORADO FRONT RANGE...

CITY           SKY/WX    TMP DP  RH WIND       PRES   REMARKS
DENVER INTL AP PTSUNNY   48  26  42 SW12      29.54S
DMNS CITY PARK   N/A     49  22  34 NW5       29.56S
AURORA         PTSUNNY   45  30  54 W8        29.56R
FRONT RANGE AP PTSUNNY   46  36  66 S3        29.56
ERIE MUNI ARPT FAIR      47  34  58 CALM      29.54S
BOULDER MUN AP FAIR      45  30  57 N3        29.53S
CENTENNIAL     PTSUNNY   44  34  67 CALM      29.57R
BROOMFIELD     PTSUNNY   46  25  42 W5        29.56R
FORT COLLINS   FAIR      46  43  89 E9        29.55S
LONGMONT       FAIR      47  41  78 CALM      29.55S
$$

COZ041-046-047-076>085-087-088-251500-
...PIKES PEAK/PALMER DIVIDE AND SOUTHERN FOOTHILLS...

CITY           SKY/WX    TMP DP  RH WIND       PRES   REMARKS
COLO. SPRINGS  PTSUNNY   48  27  44 N10       29.60R
A. F. ACADEMY  FAIR      45  23  42 NE7       29.59R
SCHRIEVER AFB  FAIR      45  28  52 NW12      29.59R
ELLICOTT       FAIR     N/A N/A N/A E10       29.57R
FALCON         FAIR      43  27  52 NW9       29.61R
FORT CARSON    FAIR      44  33  64 SW8       29.58R
LIMON          FAIR      41  38  89 CALM      29.58S
MONUMENT HILL  FAIR      36  32  87 S5        29.61S
TRINIDAD       CLOUDY    45  38  76 SE3       29.62S
$$

COZ042>045-048>051-090-091-251500-
...NORTHEAST COLORADO...

CITY           SKY/WX    TMP DP  RH WIND       PRES   REMARKS
GREELEY ARPT   PTSUNNY   45  43  93 NE9       29.57R
AKRON          FAIR      45  41  86 S3        29.57R
BURLINGTON     NOT AVBL
WRAY           NOT AVBL
STERLING       FAIR      46  45  93 CALM      29.55S
HOLYOKE        CLOUDY    46  45  93 NE10      29.55R
FORT MORGAN    FOG       42  41  96 W7        29.57S VSB 1/2
$$

COZ086-089-092>099-251500-
...SOUTHEAST COLORADO...

CITY           SKY/WX    TMP DP  RH WIND       PRES   REMARKS
PUEBLO         FAIR      49  40  71 E7        29.58R
LA JUNTA       FAIR      49  40  71 NE13      29.56R
LAMAR          PTSUNNY   51  41  68 NE17G30   29.52S
SPRINGFIELD      N/A     48  42  80 N21       29.55R
$$




USA.gov is the U.S. government's official web portal to all federal, state and local government web resources and services.